| time (UTC) | temp F | wind direction | speed MPH | gust MPH | rain 1hr in | rain 24hr in | rain mn in | humidity % | barometer mb |
| 20260505062101 | 54 | 166 | 1.0 | 1.0 | 0.00 | 0.00 | 0.00 | 90 | 1010.7 |
| 20260505061558 | 54 | 178 | 0.0 | 0.0 | 0.00 | 0.00 | 0.00 | 89 | 1010.8 |
| 20260505061056 | 55 | 124 | 1.0 | 1.0 | 0.00 | 0.00 | 0.00 | 88 | 1010.5 |
| 20260505060553 | 54 | 133 | 0.0 | 0.0 | 0.00 | 0.00 | 0.00 | 88 | 1010.5 |
| 20260505060050 | 55 | 153 | 2.0 | 2.0 | 0.00 | 0.00 | 0.00 | 88 | 1010.5 |
| 20260505055545 | 55 | 161 | 0.0 | 0.0 | 0.00 | 0.00 | 0.00 | 88 | 1010.4 |
| 20260505055042 | 55 | 156 | 0.0 | 0.0 | 0.00 | 0.00 | 0.00 | 87 | 1010.4 |
| 20260505054539 | 55 | 172 | 0.0 | 1.0 | 0.00 | 0.00 | 0.00 | 86 | 1010.2 |
| 20260505054038 | 56 | 164 | 0.0 | 0.0 | 0.00 | 0.00 | 0.00 | 85 | 1010.3 |
| 20260505053534 | 56 | 137 | 0.0 | 0.0 | 0.00 | 0.00 | 0.00 | 84 | 1010.1 |
| 20260505053031 | 57 | 159 | 0.0 | 0.0 | 0.00 | 0.00 | 0.00 | 83 | 1010.2 |
| 20260505052528 | 57 | 161 | 0.0 | 0.0 | 0.00 | 0.00 | 0.00 | 82 | 1010.0 |
| 20260505052025 | 57 | 187 | 1.0 | 1.0 | 0.00 | 0.00 | 0.00 | 83 | 1010.2 |
| 20260505051522 | 57 | 146 | 0.0 | 0.0 | 0.00 | 0.00 | 0.00 | 82 | 1010.1 |
| 20260505051020 | 58 | 159 | 0.0 | 0.0 | 0.00 | 0.00 | 0.00 | 82 | 1010.2 |
| 20260505050518 | 58 | 217 | 1.0 | 1.0 | 0.00 | 0.00 | 0.00 | 80 | 1010.0 |
| 20260505041445 | 61 | 187 | 2.0 | 2.0 | 0.00 | 0.00 | 0.00 | 74 | 1009.6 |
| 20260505040943 | 61 | 74 | 0.0 | 1.0 | 0.00 | 0.00 | 0.00 | 73 | 1009.4 |
| 20260505040440 | 62 | 138 | 0.0 | 1.0 | 0.00 | 0.00 | 0.00 | 73 | 1009.5 |
| 20260505035937 | 62 | 196 | 2.0 | 2.0 | 0.00 | 0.00 | 0.00 | 72 | 1009.4 |
| 20260505035433 | 62 | 168 | 0.0 | 0.0 | 0.00 | 0.00 | 0.00 | 71 | 1009.3 |
| 20260505034931 | 62 | 163 | 1.0 | 1.0 | 0.00 | 0.00 | 0.00 | 72 | 1009.0 |
| 20260505034427 | 63 | 141 | 1.0 | 2.0 | 0.00 | 0.00 | 0.00 | 72 | 1009.2 |
| 20260505033924 | 64 | 160 | 0.0 | 1.0 | 0.00 | 0.00 | 0.00 | 69 | 1008.9 |
| 20260505033420 | 64 | 205 | 2.0 | 2.0 | 0.00 | 0.00 | 0.00 | 69 | 1008.9 |
| 20260505032919 | 65 | 159 | 0.0 | 0.0 | 0.00 | 0.00 | 0.00 | 68 | 1008.7 |
| 20260505032416 | 65 | 111 | 0.0 | 0.0 | 0.00 | 0.00 | 0.00 | 66 | 1008.7 |
| 20260505031912 | 66 | 136 | 0.0 | 0.0 | 0.00 | 0.00 | 0.00 | 65 | 1008.7 |
| 20260505031409 | 66 | 93 | 0.0 | 1.0 | 0.00 | 0.00 | 0.00 | 65 | 1008.4 |
| 20260505030906 | 67 | 157 | 0.0 | 1.0 | 0.00 | 0.00 | 0.00 | 64 | 1008.7 |
| 20260505030402 | 67 | 177 | 1.0 | 1.0 | 0.00 | 0.00 | 0.00 | 64 | 1008.7 |
| 20260505025857 | 68 | 111 | 0.0 | 0.0 | 0.00 | 0.00 | 0.00 | 63 | 1008.4 |
| 20260505025355 | 68 | 175 | 1.0 | 1.0 | 0.00 | 0.00 | 0.00 | 63 | 1008.3 |
| 20260505024854 | 68 | 149 | 0.0 | 0.0 | 0.00 | 0.00 | 0.00 | 64 | 1008.2 |
| 20260505024351 | 69 | 147 | 0.0 | 0.0 | 0.00 | 0.00 | 0.00 | 61 | 1008.4 |
| 20260505023848 | 69 | 172 | 0.0 | 0.0 | 0.00 | 0.00 | 0.00 | 61 | 1008.1 |
| 20260505023345 | 70 | 140 | 0.0 | 0.0 | 0.00 | 0.00 | 0.00 | 59 | 1008.1 |
| 20260505022842 | 70 | 161 | 0.0 | 0.0 | 0.00 | 0.00 | 0.00 | 59 | 1008.3 |
| 20260505022339 | 71 | 176 | 1.0 | 1.0 | 0.00 | 0.00 | 0.00 | 57 | 1007.9 |
| 20260505021836 | 71 | 151 | 0.0 | 1.0 | 0.00 | 0.00 | 0.00 | 57 | 1008.0 |
| 20260505021333 | 71 | 190 | 2.0 | 2.0 | 0.00 | 0.00 | 0.00 | 57 | 1008.0 |
| 20260505020828 | 72 | 146 | 0.0 | 1.0 | 0.00 | 0.00 | 0.00 | 54 | 1007.8 |
| 20260505020324 | 73 | 146 | 0.0 | 0.0 | 0.00 | 0.00 | 0.00 | 53 | 1008.0 |
| 20260505015821 | 74 | 204 | 3.0 | 5.0 | 0.00 | 0.00 | 0.00 | 51 | 1007.9 |
| 20260505015318 | 76 | 220 | 0.0 | 1.0 | 0.00 | 0.00 | 0.00 | 49 | 1007.8 |
| 20260505014816 | 75 | 198 | 0.0 | 0.0 | 0.00 | 0.00 | 0.00 | 50 | 1008.0 |
| 20260505014313 | 75 | 78 | 2.0 | 2.0 | 0.00 | 0.00 | 0.00 | 50 | 1008.2 |
| 20260505013809 | 76 | 154 | 2.0 | 2.0 | 0.00 | 0.00 | 0.00 | 50 | 1007.9 |
| 20260505013306 | 77 | 241 | 2.0 | 2.0 | 0.00 | 0.00 | 0.00 | 48 | 1007.7 |
| 20260505012805 | 76 | 127 | 0.0 | 0.0 | 0.00 | 0.00 | 0.00 | 50 | 1007.8 |
| 20260505012304 | 77 | 48 | 2.0 | 2.0 | 0.00 | 0.00 | 0.00 | 49 | 1007.8 |
| 20260505011758 | 77 | 219 | 1.0 | 2.0 | 0.00 | 0.00 | 0.00 | 48 | 1008.1 |
| 20260505011255 | 78 | 136 | 3.0 | 3.0 | 0.00 | 0.00 | 0.00 | 48 | 1007.7 |
| 20260505010750 | 78 | 190 | 2.0 | 2.0 | 0.00 | 0.00 | 0.00 | 48 | 1007.9 |
| 20260505010247 | 78 | 250 | 1.0 | 1.0 | 0.00 | 0.00 | 0.00 | 48 | 1007.9 |
| 20260505005743 | 79 | 74 | 2.0 | 3.0 | 0.00 | 0.00 | 0.00 | 48 | 1007.9 |
| 20260505005240 | 80 | 185 | 0.0 | 1.0 | 0.00 | 0.00 | 0.00 | 48 | 1007.9 |
| 20260505004737 | 80 | 141 | 0.0 | 1.0 | 0.00 | 0.00 | 0.00 | 47 | 1007.9 |
| 20260505004233 | 80 | 28 | 1.0 | 1.0 | 0.00 | 0.00 | 0.00 | 47 | 1007.8 |
| 20260505003731 | 80 | 196 | 1.0 | 1.0 | 0.00 | 0.00 | 0.00 | 46 | 1007.8 |
| 20260505003229 | 80 | 12 | 1.0 | 3.0 | 0.00 | 0.00 | 0.00 | 46 | 1007.9 |
| 20260505002725 | 80 | 6 | 1.0 | 1.0 | 0.00 | 0.00 | 0.00 | 47 | 1007.7 |
| 20260505002222 | 81 | 182 | 0.0 | 1.0 | 0.00 | 0.00 | 0.00 | 45 | 1007.8 |
| 20260505001720 | 80 | 149 | 0.0 | 1.0 | 0.00 | 0.00 | 0.00 | 47 | 1007.8 |
| 20260505001217 | 81 | 44 | 1.0 | 1.0 | 0.00 | 0.00 | 0.00 | 45 | 1007.8 |
| 20260505000714 | 81 | 176 | 1.0 | 2.0 | 0.00 | 0.00 | 0.00 | 46 | 1007.7 |
| 20260505000212 | 80 | 102 | 1.0 | 2.0 | 0.00 | 0.00 | 0.00 | 46 | 1007.8 |
| 20260504235708 | 81 | 144 | 1.0 | 2.0 | 0.00 | 0.00 | 0.00 | 46 | 1007.6 |
| 20260504235204 | 80 | 172 | 1.0 | 2.0 | 0.00 | 0.00 | 0.00 | 45 | 1007.6 |
| 20260504234702 | 81 | 209 | 2.0 | 3.0 | 0.00 | 0.00 | 0.00 | 46 | 1007.6 |
| 20260504234159 | 82 | 274 | 2.0 | 3.0 | 0.00 | 0.00 | 0.00 | 45 | 1007.6 |
| 20260504233655 | 82 | 36 | 1.0 | 1.0 | 0.00 | 0.00 | 0.00 | 44 | 1007.7 |
| 20260504233151 | 81 | 96 | 3.0 | 3.0 | 0.00 | 0.00 | 0.00 | 44 | 1007.7 |
| 20260504232649 | 83 | 98 | 0.0 | 1.0 | 0.00 | 0.00 | 0.00 | 44 | 1007.8 |
| 20260504232145 | 82 | 156 | 0.0 | 1.0 | 0.00 | 0.00 | 0.00 | 44 | 1007.8 |
| 20260504231642 | 82 | 126 | 0.0 | 1.0 | 0.00 | 0.00 | 0.00 | 40 | 1008.0 |
| 20260504231138 | 83 | 165 | 1.0 | 1.0 | 0.00 | 0.00 | 0.00 | 42 | 1007.9 |
| 20260504230635 | 81 | 117 | 1.0 | 1.0 | 0.00 | 0.00 | 0.00 | 42 | 1007.8 |
| 20260504230134 | 82 | 59 | 2.0 | 2.0 | 0.00 | 0.00 | 0.00 | 41 | 1008.1 |
| 20260504225632 | 84 | 93 | 0.0 | 1.0 | 0.00 | 0.00 | 0.00 | 41 | 1008.1 |
| 20260504225127 | 82 | 197 | 1.0 | 2.0 | 0.00 | 0.00 | 0.00 | 39 | 1008.1 |
| 20260504224624 | 83 | 43 | 1.0 | 2.0 | 0.00 | 0.00 | 0.00 | 41 | 1008.1 |
| 20260504224121 | 83 | 172 | 1.0 | 1.0 | 0.00 | 0.00 | 0.00 | 43 | 1008.1 |
| 20260504223618 | 82 | 154 | 0.0 | 1.0 | 0.00 | 0.00 | 0.00 | 43 | 1008.1 |
| 20260504223114 | 83 | 31 | 3.0 | 3.0 | 0.00 | 0.00 | 0.00 | 42 | 1008.1 |
| 20260504222611 | 83 | 189 | 1.0 | 1.0 | 0.00 | 0.00 | 0.00 | 43 | 1008.2 |
| 20260504222108 | 83 | 153 | 1.0 | 1.0 | 0.00 | 0.00 | 0.00 | 42 | 1008.1 |
| 20260504221605 | 82 | 179 | 0.0 | 0.0 | 0.00 | 0.00 | 0.00 | 42 | 1008.2 |
| 20260504221102 | 81 | 150 | 1.0 | 1.0 | 0.00 | 0.00 | 0.00 | 44 | 1008.4 |
| 20260504220558 | 82 | 265 | 2.0 | 2.0 | 0.00 | 0.00 | 0.00 | 43 | 1008.3 |
| 20260504220055 | 81 | 188 | 0.0 | 1.0 | 0.00 | 0.00 | 0.00 | 47 | 1008.3 |
| 20260504215552 | 82 | 172 | 1.0 | 1.0 | 0.00 | 0.00 | 0.00 | 44 | 1008.3 |
| 20260504215050 | 81 | 148 | 0.0 | 1.0 | 0.00 | 0.00 | 0.00 | 45 | 1008.5 |
| 20260504214545 | 82 | 182 | 2.0 | 2.0 | 0.00 | 0.00 | 0.00 | 46 | 1008.5 |
| 20260504214042 | 80 | 96 | 2.0 | 2.0 | 0.00 | 0.00 | 0.00 | 46 | 1008.4 |
| 20260504213538 | 81 | 210 | 3.0 | 3.0 | 0.00 | 0.00 | 0.00 | 44 | 1008.6 |
| 20260504213036 | 80 | 175 | 1.0 | 1.0 | 0.00 | 0.00 | 0.00 | 44 | 1008.6 |
| 20260504212531 | 82 | 205 | 1.0 | 1.0 | 0.00 | 0.00 | 0.00 | 43 | 1008.7 |
| 20260504212029 | 81 | 186 | 2.0 | 2.0 | 0.00 | 0.00 | 0.00 | 45 | 1008.5 |
| 20260504211526 | 79 | 218 | 1.0 | 1.0 | 0.00 | 0.00 | 0.00 | 46 | 1008.7 |
| 20260504211023 | 81 | 235 | 4.0 | 5.0 | 0.00 | 0.00 | 0.00 | 44 | 1008.7 |
| 20260504210520 | 81 | 257 | 2.0 | 3.0 | 0.00 | 0.00 | 0.00 | 42 | 1008.5 |
| 20260504210016 | 82 | 116 | 0.0 | 0.0 | 0.00 | 0.00 | 0.00 | 43 | 1008.7 |
| 20260504205514 | 80 | 208 | 1.0 | 2.0 | 0.00 | 0.00 | 0.00 | 42 | 1008.6 |
| 20260504205012 | 81 | 155 | 0.0 | 1.0 | 0.00 | 0.00 | 0.00 | 42 | 1008.7 |
| 20260504204510 | 80 | 172 | 0.0 | 1.0 | 0.00 | 0.00 | 0.00 | 43 | 1008.7 |
| 20260504204009 | 80 | 23 | 2.0 | 2.0 | 0.00 | 0.00 | 0.00 | 42 | 1008.9 |
| 20260504203506 | 80 | 194 | 0.0 | 1.0 | 0.00 | 0.00 | 0.00 | 43 | 1008.8 |
| 20260504203003 | 80 | 181 | 1.0 | 1.0 | 0.00 | 0.00 | 0.00 | 41 | 1008.9 |
| 20260504202459 | 79 | 174 | 0.0 | 1.0 | 0.00 | 0.00 | 0.00 | 42 | 1008.9 |
| 20260504201955 | 79 | 52 | 2.0 | 2.0 | 0.00 | 0.00 | 0.00 | 43 | 1008.9 |
| 20260504201453 | 79 | 267 | 4.0 | 5.0 | 0.00 | 0.00 | 0.00 | 45 | 1008.8 |
| 20260504200950 | 79 | 221 | 3.0 | 5.0 | 0.00 | 0.00 | 0.00 | 45 | 1008.9 |
| 20260504200447 | 79 | 149 | 1.0 | 2.0 | 0.00 | 0.00 | 0.00 | 44 | 1008.9 |
| 20260504195943 | 79 | 203 | 1.0 | 2.0 | 0.00 | 0.00 | 0.00 | 42 | 1009.0 |
| 20260504195439 | 80 | 205 | 1.0 | 1.0 | 0.00 | 0.00 | 0.00 | 41 | 1009.0 |
| 20260504194936 | 80 | 171 | 0.0 | 1.0 | 0.00 | 0.00 | 0.00 | 42 | 1009.1 |
| 20260504194432 | 78 | 205 | 1.0 | 1.0 | 0.00 | 0.00 | 0.00 | 45 | 1009.0 |
| 20260504193928 | 80 | 96 | 2.0 | 3.0 | 0.00 | 0.00 | 0.00 | 39 | 1009.0 |
| 20260504193426 | 79 | 180 | 0.0 | 0.0 | 0.00 | 0.00 | 0.00 | 41 | 1008.9 |
| 20260504192924 | 77 | 164 | 1.0 | 1.0 | 0.00 | 0.00 | 0.00 | 43 | 1009.0 |
| 20260504192421 | 76 | 183 | 1.0 | 2.0 | 0.00 | 0.00 | 0.00 | 44 | 1009.0 |
| 20260504191920 | 76 | 218 | 1.0 | 1.0 | 0.00 | 0.00 | 0.00 | 43 | 1009.1 |
| 20260504191418 | 78 | 193 | 3.0 | 5.0 | 0.00 | 0.00 | 0.00 | 42 | 1009.2 |
| 20260504190913 | 77 | 171 | 1.0 | 2.0 | 0.00 | 0.00 | 0.00 | 46 | 1009.4 |
| 20260504190409 | 76 | 171 | 0.0 | 1.0 | 0.00 | 0.00 | 0.00 | 47 | 1009.2 |
| 20260504185906 | 75 | 240 | 3.0 | 3.0 | 0.00 | 0.00 | 0.00 | 47 | 1009.4 |
| 20260504185403 | 77 | 86 | 1.0 | 1.0 | 0.00 | 0.00 | 0.00 | 47 | 1009.3 |
| 20260504184858 | 77 | 147 | 0.0 | 0.0 | 0.00 | 0.00 | 0.00 | 46 | 1009.4 |
| 20260504184354 | 75 | 160 | 1.0 | 1.0 | 0.00 | 0.00 | 0.00 | 49 | 1009.4 |
| 20260504183851 | 75 | 59 | 0.0 | 1.0 | 0.00 | 0.00 | 0.00 | 48 | 1009.5 |
| 20260504183348 | 75 | 22 | 1.0 | 2.0 | 0.00 | 0.00 | 0.00 | 50 | 1009.4 |
| 20260504182846 | 73 | 62 | 2.0 | 3.0 | 0.00 | 0.00 | 0.00 | 51 | 1009.7 |
| 20260504182343 | 73 | 41 | 2.0 | 3.0 | 0.00 | 0.00 | 0.00 | 52 | 1009.5 |
| 20260504181839 | 73 | 120 | 0.0 | 1.0 | 0.00 | 0.00 | 0.00 | 52 | 1009.6 |
| 20260504181337 | 73 | 225 | 2.0 | 2.0 | 0.00 | 0.00 | 0.00 | 52 | 1009.6 |
| 20260504180836 | 73 | 94 | 1.0 | 1.0 | 0.00 | 0.00 | 0.00 | 53 | 1009.7 |
| 20260504180334 | 73 | 159 | 1.0 | 1.0 | 0.00 | 0.00 | 0.00 | 50 | 1009.7 |
| 20260504175832 | 71 | 158 | 0.0 | 0.0 | 0.00 | 0.00 | 0.00 | 54 | 1009.6 |
| 20260504175328 | 71 | 128 | 1.0 | 1.0 | 0.00 | 0.00 | 0.00 | 54 | 1009.6 |
| 20260504174827 | 73 | 34 | 2.0 | 2.0 | 0.00 | 0.00 | 0.00 | 52 | 1009.5 |
| 20260504174324 | 73 | 163 | 1.0 | 2.0 | 0.00 | 0.00 | 0.00 | 50 | 1009.8 |
| 20260504173820 | 72 | 165 | 1.0 | 1.0 | 0.00 | 0.00 | 0.00 | 53 | 1009.8 |
| 20260504173317 | 71 | 160 | 0.0 | 0.0 | 0.00 | 0.00 | 0.00 | 56 | 1009.6 |
| 20260504172814 | 70 | 174 | 1.0 | 1.0 | 0.00 | 0.00 | 0.00 | 56 | 1009.7 |
| 20260504172311 | 70 | 130 | 4.0 | 5.0 | 0.00 | 0.00 | 0.00 | 56 | 1009.8 |
| 20260504171807 | 69 | 190 | 1.0 | 2.0 | 0.00 | 0.00 | 0.00 | 56 | 1009.7 |
| 20260504171304 | 71 | 129 | 0.0 | 0.0 | 0.00 | 0.00 | 0.00 | 55 | 1009.5 |
| 20260504170801 | 69 | 158 | 1.0 | 1.0 | 0.00 | 0.00 | 0.00 | 57 | 1009.4 |
| 20260504170258 | 69 | 252 | 3.0 | 3.0 | 0.00 | 0.00 | 0.00 | 56 | 1009.5 |
| 20260504160216 | 64 | 147 | 0.0 | 1.0 | 0.00 | 0.00 | 0.00 | 70 | 1009.2 |
| 20260504151144 | 59 | 157 | 0.0 | 0.0 | 0.00 | 0.00 | 0.00 | 81 | 1009.0 |
| 20260504150642 | 60 | 166 | 0.0 | 0.0 | 0.00 | 0.00 | 0.00 | 80 | 1009.0 |
| 20260504150138 | 59 | 137 | 0.0 | 1.0 | 0.00 | 0.00 | 0.00 | 77 | 1009.1 |
| 20260504141107 | 53 | 154 | 0.0 | 0.0 | 0.00 | 0.00 | 0.00 | 91 | 1008.6 |
| 20260504140604 | 53 | 169 | 0.0 | 0.0 | 0.00 | 0.00 | 0.00 | 92 | 1008.6 |
| 20260504130528 | 51 | 148 | 1.0 | 1.0 | 0.00 | 0.00 | 0.00 | 93 | 1008.1 |
| 20260504110415 | 52 | 162 | 1.0 | 1.0 | 0.00 | 0.00 | 0.00 | 92 | 1007.9 |
| 20260504100332 | 53 | 175 | 1.0 | 1.0 | 0.00 | 0.00 | 0.00 | 90 | 1007.5 |
| 20260504081726 | 56 | 190 | 2.0 | 2.0 | 0.00 | 0.00 | 0.00 | 85 | 1007.8 |
| 20260504081222 | 56 | 169 | 1.0 | 2.0 | 0.00 | 0.00 | 0.00 | 85 | 1007.9 |
| 20260504080718 | 56 | 168 | 1.0 | 2.0 | 0.00 | 0.00 | 0.00 | 85 | 1007.8 |
| 20260504080215 | 56 | 161 | 1.0 | 1.0 | 0.00 | 0.00 | 0.00 | 85 | 1007.8 |
| 20260504070143 | 58 | 161 | 2.0 | 2.0 | 0.00 | 0.00 | 0.00 | 81 | 1007.7 |